QPF
0.07 0.29 0.04 0.20 0.26 0.15 0.02 0.03 0.00 0.08 0.17 0.12 0.01 0.00 0.00 0.01 0.00 0.00 0.00 0.00 0.00 0.00 0.00 0.00 0.00 0.00 0.00 0.00 0.11 0.04 0.02 0.01 0.00 0.00 0.00 0.00 0.00 0.00
0.12 0.13 0.01 0.13 0.09 0.01 0.00 0.02 0.02 0.01 0.08 0.19 0.08 0.01 0.00 0.02 0.00 0.00 0.00 0.00 0.00 0.00 0.00 0.00 0.00 0.00 0.00 0.00 0.01 0.00 0.00 0.01 0.00 0.00 0.00 0.00 0.00 0.00
0.05 0.05 0.03 0.02 0.01 0.00 0.00 0.01 0.01 0.05 0.05 0.17 0.11 0.06 0.04 0.03 0.04 0.01 0.01 0.01 0.03 0.01 0.00 0.00 0.00 0.00 0.00 0.00 0.00 0.00 0.00 0.00 0.00 0.00 0.00 0.00 0.00 0.00
0.07 0.01 0.03 0.00 0.01 0.00 0.00 0.00 0.00 0.01 0.00 0.00 0.01 0.01 0.00 0.00 0.03 0.01 0.03 0.03 0.04 0.01 0.00 0.00 0.00 0.00 0.00 0.00 0.00 0.00 0.00 0.00 0.00 0.00 0.00 0.00 0.00 0.00
0.03 0.00 0.06 0.01 0.04 0.00 0.00 0.00 0.00 0.00 0.00 0.00 0.00 0.00 0.00 0.00 0.00 0.00 0.00 0.00 0.00 0.00 0.00 0.00 0.00 0.00 0.00 0.00 0.00 0.00 0.00 0.00 0.00 0.00 0.00 0.00 0.00 0.00
0.01 0.00 0.10 0.07 0.02 0.00 0.00 0.00 0.00 0.00 0.00 0.00 0.00 0.00 0.00 0.00 0.00 0.00 0.00 0.00 0.01 0.01 0.00 0.00 0.00 0.00 0.00 0.00 0.00 0.00 0.00 0.00 0.00 0.00 0.00 0.00 0.00 0.00
0.00 0.01 0.07 0.02 0.00 0.00 0.00 0.00 0.00 0.00 0.00 0.00 0.00 0.00 0.00 0.00 0.00 0.00 0.00 0.00 0.00 0.00 0.00 0.00 0.00 0.00 0.00 0.00 0.02 0.06 0.05 0.02 0.01 0.01 0.01 0.03 0.05 0.03
0.01 0.00 0.00 0.00 0.00 0.00 0.00 0.00 0.00 0.00 0.00 0.00 0.00 0.00 0.00 0.00 0.00 0.00 0.00 0.00 0.00 0.00 0.00 0.00 0.00 0.00 0.00 0.00 0.00 0.01 0.03 0.07 0.06 0.03 0.01 0.02 0.04 0.08
0.00 0.00 0.00 0.00 0.00 0.00 0.00 0.00 0.00 0.00 0.00 0.00 0.00 0.00 0.00 0.00 0.00 0.00 0.00 0.00 0.00 0.00 0.00 0.00 0.00 0.00 0.00 0.00 0.00 0.00 0.00 0.02 0.03 0.08 0.10 0.08 0.06 0.05
0.00 0.00 0.00 0.00 0.00 0.00 0.00 0.00 0.00 0.00 0.00 0.00 0.00 0.00 0.00 0.00 0.00 0.00 0.00 0.00 0.00 0.00 0.00 0.00 0.00 0.00 0.00 0.00 0.00 0.00 0.00 0.00 0.00 0.01 0.04 0.08 0.09 0.09
0.00 0.00 0.00 0.00 0.00 0.00 0.00 0.00 0.00 0.00 0.00 0.00 0.00 0.00 0.01 0.01 0.00 0.00 0.00 0.00 0.00 0.00 0.00 0.00 0.00 0.00 0.00 0.00 0.00 0.00 0.00 0.00 0.00 0.00 0.00 0.00 0.01 0.01
0.00 0.00 0.00 0.00 0.00 0.00 0.00 0.00 0.00 0.00 0.00 0.00 0.00 0.01 0.03 0.05 0.05 0.03 0.01 0.00 0.00 0.00 0.00 0.00 0.00 0.00 0.00 0.00 0.00 0.00 0.00 0.00 0.00 0.00 0.00 0.00 0.00 0.00
0.00 0.00 0.00 0.00 0.01 0.00 0.00 0.00 0.01 0.02 0.03 0.02 0.02 0.03 0.06 0.08 0.06 0.04 0.01 0.00 0.00 0.00 0.02 0.01 0.00 0.00 0.00 0.00 0.00 0.00 0.00 0.00 0.00 0.00 0.00 0.00 0.00 0.00
0.04 0.05 0.04 0.05 0.05 0.04 0.02 0.09 0.09 0.09 0.05 0.02 0.02 0.03 0.03 0.04 0.05 0.04 0.04 0.02 0.01 0.02 0.05 0.04 0.01 0.00 0.00 0.00 0.00 0.00 0.00 0.00 0.00 0.00 0.00 0.00 0.00 0.00
0.25 0.24 0.21 0.14 0.08 0.11 0.13 0.16 0.14 0.08 0.04 0.02 0.02 0.04 0.04 0.04 0.02 0.01 0.00 0.01 0.03 0.05 0.05 0.05 0.03 0.01 0.01 0.02 0.01 0.00 0.00 0.00 0.00 0.00 0.00 0.00 0.00 0.00
0.10 0.18 0.23 0.18 0.19 0.25 0.28 0.29 0.19 0.14 0.09 0.09 0.03 0.01 0.01 0.02 0.02 0.02 0.02 0.01 0.01 0.01 0.00 0.00 0.00 0.00 0.00 0.00 0.00 0.00 0.01 0.00 0.00 0.00 0.00 0.00 0.00 0.00
0.04 0.10 0.15 0.18 0.19 0.18 0.19 0.20 0.20 0.12 0.06 0.03 0.00 0.00 0.00 0.00 0.00 0.00 0.01 0.00 0.00 0.00 0.00 0.00 0.00 0.00 0.00 0.00 0.00 0.00 0.00 0.00 0.00 0.00 0.00 0.00 0.00 0.00
0.00 0.02 0.05 0.11 0.15 0.15 0.16 0.13 0.10 0.05 0.02 0.01 0.00 0.00 0.00 0.00 0.00 0.00 0.00 0.00 0.00 0.00 0.00 0.00 0.00 0.00 0.00 0.00 0.00 0.00 0.00 0.00 0.00 0.00 0.00 0.00 0.00 0.00
0.02 0.10 0.10 0.09 0.06 0.06 0.06 0.02 0.00 0.00 0.00 0.00 0.00 0.00 0.00 0.00 0.00 0.00 0.00 0.00 0.00 0.00 0.00 0.00 0.00 0.00 0.00 0.00 0.00 0.00 0.00 0.00 0.00 0.00 0.00 0.00 0.00 0.00
0.01 0.03 0.04 0.02 0.01 0.01 0.00 0.00 0.00 0.00 0.00 0.00 0.00 0.00 0.00 0.00 0.00 0.00 0.00 0.00 0.00 0.00 0.00 0.00 0.00 0.00 0.00 0.00 0.00 0.00 0.00 0.00 0.00 0.00 0.00 0.00 0.00 0.00
0.00 0.00 0.00 0.00 0.00 0.00 0.00 0.00 0.00 0.00 0.00 0.00 0.00 0.00 0.00 0.00 0.00 0.00 0.00 0.00 0.00 0.00 0.00 0.00 0.00 0.00 0.00 0.00 0.00 0.00 0.00 0.00 0.00 0.00 0.00 0.00 0.00 0.00
0.00 0.00 0.00 0.00 0.00 0.00 0.00 0.00 0.00 0.00 0.00 0.00 0.00 0.00 0.00 0.00 0.00 0.00 0.00 0.00 0.00 0.00 0.00 0.00 0.00 0.00 0.00 0.00 0.00 0.00 0.00 0.00 0.00 0.00 0.00 0.00 0.00 0.00
0.01 0.00 0.00 0.00 0.00 0.00 0.00 0.00 0.00 0.00 0.00 0.00 0.00 0.00 0.00 0.00 0.00 0.00 0.00 0.00 0.00 0.00 0.00 0.00 0.00 0.00 0.00 0.00 0.00 0.00 0.00 0.00 0.00 0.00 0.00 0.00 0.00 0.00
MSLP
1019.60 1019.79 1020.01 1019.98 1020.22 1020.30 1020.40 1020.48 1020.54 1020.38 1019.99 1019.54 1019.43 1019.04 1019.19 1019.48 1019.55 1019.70 1019.79 1019.93 1020.22 1020.60 1020.94 1021.20 1021.42 1021.68 1021.89 1022.18 1022.41 1022.70 1022.98 1023.22 1023.46 1023.65 1023.78 1023.94 1024.14 1024.32
1018.60 1018.95 1019.12 1019.23 1019.41 1019.47 1019.60 1019.72 1019.84 1019.92 1019.79 1019.44 1019.22 1019.08 1018.82 1019.00 1019.22 1019.19 1019.32 1019.49 1019.71 1019.96 1020.24 1020.54 1020.79 1021.02 1021.25 1021.49 1021.72 1021.98 1022.18 1022.37 1022.59 1022.81 1023.02 1023.18 1023.37 1023.51
1018.07 1018.15 1018.30 1018.52 1018.78 1018.92 1019.11 1019.23 1019.34 1019.48 1019.50 1019.32 1019.09 1018.81 1018.70 1018.65 1018.62 1018.80 1018.88 1019.08 1019.22 1019.37 1019.72 1019.96 1020.16 1020.32 1020.46 1020.67 1020.89 1021.11 1021.34 1021.54 1021.71 1021.90 1022.11 1022.30 1022.53 1022.69
1017.30 1017.64 1017.65 1017.97 1018.16 1018.38 1018.65 1018.76 1018.81 1018.89 1018.98 1018.95 1018.83 1018.72 1018.61 1018.40 1018.11 1018.29 1018.36 1018.45 1018.62 1018.73 1018.99 1019.21 1019.41 1019.62 1019.77 1019.92 1020.05 1020.21 1020.45 1020.69 1020.84 1021.00 1021.17 1021.29 1021.43 1021.69
1016.54 1016.86 1016.96 1017.39 1017.47 1017.66 1018.01 1018.25 1018.40 1018.48 1018.57 1018.51 1018.40 1018.41 1018.39 1018.38 1018.21 1017.95 1018.07 1017.94 1017.99 1018.09 1018.32 1018.49 1018.66 1018.80 1018.95 1019.13 1019.31 1019.43 1019.62 1019.90 1019.99 1020.08 1020.28 1020.42 1020.56 1020.66
1016.02 1016.07 1016.31 1016.70 1016.79 1017.02 1017.31 1017.55 1017.83 1018.11 1018.23 1018.28 1018.34 1018.24 1018.06 1017.91 1017.89 1017.74 1017.97 1017.79 1017.64 1017.38 1017.40 1017.54 1017.79 1017.98 1018.21 1018.37 1018.57 1018.72 1018.79 1018.87 1019.05 1019.29 1019.48 1019.61 1019.68 1019.71
1015.16 1015.27 1015.51 1015.69 1015.81 1015.93 1016.47 1016.81 1017.22 1017.65 1018.05 1018.38 1018.40 1018.21 1018.02 1018.03 1018.06 1017.84 1017.67 1017.36 1017.19 1017.05 1017.05 1017.07 1017.12 1017.25 1017.15 1017.43 1017.52 1017.62 1017.76 1017.94 1018.19 1018.35 1018.60 1018.75 1018.92 1019.01
1014.23 1014.43 1014.55 1014.86 1015.22 1015.64 1015.84 1016.13 1016.43 1016.76 1017.08 1017.46 1017.73 1017.82 1017.77 1017.73 1017.53 1017.53 1017.49 1017.37 1017.17 1016.81 1016.85 1016.59 1016.54 1016.52 1016.31 1016.41 1016.32 1016.48 1016.57 1016.74 1016.97 1017.15 1017.26 1017.46 1017.81 1018.01
1013.44 1013.71 1013.95 1014.15 1014.44 1014.89 1015.30 1015.79 1016.18 1016.32 1016.34 1016.46 1016.71 1016.87 1016.98 1017.06 1017.31 1017.19 1017.27 1017.22 1017.01 1016.78 1016.76 1016.44 1016.17 1015.92 1015.50 1015.51 1015.61 1015.72 1015.87 1016.03 1016.22 1016.45 1016.60 1016.77 1017.04 1017.19
1012.90 1013.08 1013.34 1013.58 1013.96 1014.39 1014.79 1015.08 1015.30 1015.65 1015.95 1016.11 1015.98 1015.85 1016.08 1016.17 1016.52 1016.70 1016.78 1016.83 1016.73 1016.49 1016.55 1016.34 1015.85 1015.41 1015.07 1014.88 1014.90 1014.99 1015.20 1015.43 1015.55 1015.68 1015.86 1016.01 1016.11 1016.21
1012.96 1013.02 1013.34 1013.58 1013.80 1014.23 1014.69 1014.83 1014.90 1014.72 1014.76 1015.28 1015.41 1015.55 1015.72 1015.83 1015.83 1016.47 1016.69 1016.87 1016.59 1016.17 1016.13 1016.10 1015.73 1015.41 1014.95 1014.57 1014.49 1014.55 1014.65 1014.87 1014.98 1015.04 1015.12 1015.24 1015.33 1015.50
1012.26 1012.45 1012.73 1013.33 1013.73 1014.13 1014.42 1014.53 1014.84 1014.63 1014.58 1014.71 1015.21 1015.14 1015.28 1015.60 1015.92 1015.78 1016.01 1016.21 1016.39 1016.01 1015.66 1015.97 1015.63 1015.56 1015.10 1014.69 1014.48 1014.39 1014.34 1014.52 1014.62 1014.60 1014.59 1014.59 1014.73 1014.92
1012.13 1012.21 1012.38 1012.76 1013.27 1013.78 1014.16 1014.37 1014.21 1014.27 1014.54 1014.57 1014.70 1014.86 1014.83 1014.98 1015.17 1015.43 1015.39 1015.41 1015.49 1015.36 1015.09 1015.34 1015.32 1015.45 1015.40 1015.02 1014.66 1014.34 1014.07 1013.88 1014.00 1013.97 1014.12 1014.17 1014.24 1014.31
1013.20 1013.02 1012.49 1012.38 1012.64 1013.05 1013.70 1013.94 1014.08 1014.09 1014.27 1014.31 1014.43 1014.57 1014.67 1014.69 1014.62 1014.63 1014.90 1014.84 1014.72 1014.76 1015.02 1015.15 1015.17 1015.22 1015.18 1015.01 1014.73 1014.26 1014.01 1013.68 1013.77 1013.86 1013.75 1013.67 1013.67 1013.77
1013.29 1012.67 1013.13 1012.96 1012.47 1012.33 1013.12 1013.87 1013.94 1013.90 1013.91 1013.96 1014.09 1014.14 1014.28 1014.41 1014.41 1014.30 1014.18 1014.19 1014.23 1014.22 1014.41 1014.75 1015.08 1014.99 1014.90 1014.70 1014.68 1014.35 1014.12 1013.62 1013.53 1013.65 1013.45 1013.26 1013.13 1012.88
1011.34 1010.91 1011.85 1013.05 1012.18 1012.14 1012.89 1013.93 1013.91 1013.78 1013.76 1013.85 1013.87 1014.09 1014.35 1014.33 1014.51 1014.33 1014.36 1014.40 1014.18 1014.20 1014.03 1013.95 1013.94 1014.33 1014.36 1014.40 1014.32 1014.05 1013.98 1013.88 1013.47 1013.48 1013.41 1013.08 1012.74 1012.52
1009.22 1010.22 1011.59 1012.45 1011.60 1011.80 1012.84 1013.76 1013.69 1013.55 1013.68 1014.01 1013.95 1014.38 1014.32 1014.63 1014.84 1014.79 1014.74 1014.98 1014.69 1014.52 1014.36 1014.32 1014.13 1014.09 1014.15 1014.14 1014.06 1013.81 1013.71 1013.71 1013.59 1013.52 1013.31 1012.75 1012.36 1012.11
1009.61 1010.71 1011.40 1011.26 1011.30 1012.03 1013.06 1013.47 1013.48 1013.60 1013.89 1014.01 1014.27 1014.47 1014.56 1014.83 1014.92 1014.84 1014.83 1014.93 1014.67 1014.54 1014.53 1014.75 1014.51 1014.34 1014.13 1013.79 1013.85 1013.70 1013.68 1013.86 1013.75 1013.54 1013.32 1013.00 1012.25 1011.88
1009.56 1010.01 1010.78 1010.83 1011.27 1012.17 1012.78 1013.34 1013.43 1013.64 1013.87 1014.44 1014.47 1014.80 1014.95 1015.11 1015.27 1015.39 1015.23 1015.19 1015.08 1015.00 1015.21 1015.25 1015.12 1014.97 1014.64 1014.47 1014.29 1014.09 1014.16 1014.18 1014.07 1013.65 1013.38 1013.03 1012.44 1011.87
1009.25 1009.88 1010.68 1010.98 1011.72 1012.14 1012.83 1013.39 1013.61 1013.84 1014.49 1014.85 1014.98 1015.54 1015.68 1015.72 1015.91 1016.13 1016.14 1015.89 1015.80 1015.69 1015.91 1015.98 1015.91 1015.89 1015.63 1015.01 1014.64 1014.34 1014.48 1014.64 1014.38 1014.02 1013.62 1013.38 1012.66 1011.85
1009.71 1010.34 1010.93 1011.20 1011.81 1012.58 1013.03 1013.74 1014.28 1014.85 1015.16 1015.22 1015.51 1015.70 1015.97 1015.84 1016.02 1016.18 1016.38 1016.18 1016.03 1016.00 1015.99 1016.18 1016.31 1016.09 1015.52 1014.99 1014.88 1014.68 1014.66 1014.68 1014.62 1014.35 1013.88 1013.24 1012.48 1011.86
1010.39 1010.84 1011.37 1011.98 1012.46 1013.15 1013.65 1014.03 1014.91 1015.55 1015.83 1015.83 1016.10 1016.14 1016.32 1016.43 1016.44 1016.71 1016.66 1016.72 1016.78 1016.82 1016.76 1016.61 1016.18 1015.84 1015.63 1015.47 1015.25 1014.96 1014.49 1014.17 1014.08 1013.85 1013.74 1013.72 1013.33 1012.72
1010.75 1011.39 1012.25 1012.76 1013.37 1014.17 1014.38 1014.79 1015.29 1015.96 1016.23 1016.28 1016.38 1016.62 1016.69 1017.01 1017.06 1016.87 1016.98 1017.06 1017.08 1017.02 1016.91 1016.65 1016.43 1016.16 1015.89 1015.66 1015.57 1015.24 1014.77 1014.18 1013.81 1013.50 1013.28 1013.09 1012.97 1012.80
Thickness
5766 5763 5760 5760 5757 5756 5754 5751 5745 5741 5745 5752 5752 5756 5754 5751 5750 5748 5747 5746 5744 5742 5741 5739 5738 5738 5738 5738 5738 5737 5736 5736 5735 5736 5737 5737 5737 5737
5771 5767 5766 5764 5761 5760 5758 5755 5752 5749 5744 5750 5752 5753 5754 5752 5751 5751 5750 5749 5747 5745 5744 5743 5741 5741 5741 5741 5741 5740 5739 5738 5738 5737 5738 5739 5739 5739
5772 5771 5770 5768 5763 5761 5759 5757 5754 5752 5746 5749 5749 5751 5753 5752 5753 5751 5752 5750 5750 5748 5746 5745 5744 5744 5745 5745 5744 5743 5742 5741 5741 5740 5739 5739 5739 5740
5776 5774 5773 5770 5765 5763 5761 5759 5757 5755 5751 5747 5750 5749 5749 5751 5754 5753 5754 5753 5752 5751 5748 5747 5746 5746 5746 5746 5746 5746 5745 5744 5743 5742 5741 5741 5740 5739
5780 5777 5776 5772 5769 5768 5765 5761 5759 5756 5753 5750 5748 5750 5749 5748 5748 5751 5753 5755 5755 5754 5751 5750 5750 5749 5749 5748 5747 5747 5747 5745 5745 5744 5743 5742 5741 5741
5782 5783 5781 5775 5774 5772 5769 5765 5762 5757 5754 5751 5748 5747 5748 5749 5748 5746 5750 5755 5756 5757 5756 5753 5753 5752 5751 5750 5749 5748 5748 5748 5748 5746 5744 5743 5742 5743
5787 5786 5785 5782 5781 5779 5774 5770 5765 5759 5753 5747 5744 5745 5745 5746 5746 5749 5752 5757 5759 5761 5760 5758 5755 5754 5754 5753 5752 5751 5750 5749 5748 5747 5745 5743 5741 5741
5791 5790 5790 5786 5783 5777 5775 5772 5769 5763 5758 5753 5749 5745 5746 5747 5752 5752 5751 5750 5751 5760 5758 5760 5760 5759 5758 5756 5756 5756 5755 5753 5751 5750 5748 5747 5744 5741
5798 5797 5794 5793 5789 5784 5778 5770 5765 5763 5763 5761 5755 5753 5752 5753 5751 5751 5750 5750 5750 5755 5754 5753 5761 5759 5762 5760 5759 5757 5755 5754 5752 5749 5747 5745 5743 5741
5802 5799 5796 5794 5791 5786 5780 5776 5773 5767 5762 5759 5759 5759 5758 5759 5755 5753 5752 5750 5752 5754 5752 5747 5757 5758 5761 5760 5759 5757 5754 5751 5749 5748 5745 5743 5742 5741
5792 5792 5789 5787 5784 5781 5778 5773 5770 5770 5771 5765 5761 5758 5756 5756 5756 5751 5747 5743 5743 5747 5750 5748 5749 5751 5755 5756 5755 5753 5751 5748 5746 5744 5742 5740 5739 5738
5789 5789 5785 5780 5775 5772 5771 5770 5764 5765 5766 5764 5760 5758 5756 5752 5750 5749 5747 5741 5738 5740 5745 5742 5743 5743 5743 5745 5745 5744 5743 5741 5740 5738 5737 5737 5736 5733
5784 5782 5782 5776 5771 5766 5763 5763 5764 5764 5760 5759 5757 5754 5753 5751 5748 5745 5745 5744 5739 5738 5742 5739 5736 5733 5732 5733 5733 5732 5733 5733 5732 5731 5729 5730 5729 5729
5762 5765 5770 5770 5768 5765 5758 5754 5752 5753 5753 5753 5750 5748 5745 5744 5745 5743 5739 5738 5738 5735 5732 5730 5730 5726 5724 5722 5720 5724 5723 5724 5723 5721 5721 5722 5721 5721
5748 5751 5744 5750 5757 5761 5754 5744 5743 5745 5745 5743 5741 5739 5738 5738 5737 5737 5736 5737 5735 5734 5730 5725 5720 5719 5717 5715 5712 5712 5710 5714 5713 5712 5712 5712 5711 5711
5747 5753 5741 5727 5744 5750 5743 5734 5735 5738 5736 5733 5732 5731 5728 5727 5724 5727 5725 5726 5727 5724 5723 5723 5721 5714 5709 5706 5705 5704 5703 5700 5705 5704 5705 5705 5703 5701
5768 5753 5724 5719 5735 5734 5729 5724 5727 5728 5725 5722 5719 5717 5716 5713 5713 5715 5715 5711 5712 5711 5709 5710 5708 5706 5702 5700 5697 5698 5698 5695 5696 5694 5693 5696 5697 5694
5754 5738 5731 5730 5729 5725 5718 5716 5718 5718 5714 5710 5706 5705 5705 5704 5703 5703 5702 5699 5700 5701 5699 5692 5692 5691 5690 5690 5689 5688 5686 5683 5683 5681 5681 5681 5685 5682
5747 5745 5736 5736 5730 5722 5716 5711 5711 5709 5708 5702 5700 5695 5694 5692 5691 5688 5688 5687 5686 5686 5681 5677 5675 5673 5672 5669 5671 5671 5669 5667 5666 5666 5665 5665 5669 5672
5743 5739 5729 5726 5719 5717 5711 5704 5702 5702 5696 5692 5689 5682 5680 5679 5676 5672 5670 5671 5670 5670 5665 5661 5658 5656 5654 5656 5657 5656 5651 5649 5648 5649 5649 5647 5649 5653
5730 5724 5718 5716 5711 5704 5702 5695 5690 5685 5682 5681 5678 5674 5669 5668 5665 5662 5658 5653 5653 5653 5650 5645 5641 5640 5642 5643 5641 5639 5635 5631 5629 5629 5631 5633 5635 5638
5711 5709 5705 5700 5696 5689 5686 5683 5676 5671 5669 5668 5664 5660 5656 5654 5652 5647 5645 5642 5638 5634 5631 5629 5629 5628 5626 5624 5623 5623 5624 5622 5616 5613 5610 5608 5609 5612
5697 5694 5687 5683 5679 5673 5673 5671 5667 5659 5656 5653 5651 5647 5645 5638 5634 5634 5630 5626 5623 5621 5618 5617 5615 5614 5612 5611 5606 5605 5605 5606 5605 5603 5598 5592 5588 5583